Location: *
(48.7358°N, 0.3111°E)
Time: 02:32:08
(UTC+00:00)

COSMOS 2428 - Pass Details

Date: 22 October 2019
Orbit: 844 x 858 km, 70.9° (Epoch: 19 November)

Event Time Altitude Azimuth Distance (km) Brightness Sun altitude
Exits shadow 04:41:34 24° 303° (WNW) 1,671 3.8 -18.4°
Maximum altitude 04:42:23 25° 316° (NW) 1,640 3.9 -18.2°
Drops below altitude 10° 04:47:02 10° 11° (NNE) 2,478 5.3 -17.5°
Sets 04:49:56 0° 25° (NNE) 3,418 6.2 -17.0°
